NOAA 16 DEB, 41245

Orbit data source: Space-Track

NOAA 16 DEB, 41245 is space debris in SSO originally from a launch on Thu, 21 Sep 2000 UTC launched from the Air Force Western Test Range (AFWTR). Debris objects in space refer to the collection of defunct objects orbiting the Earth. Examples of debris include non-operational satellites, rocket bodies, and fragments generated from explosions, collisions, or faulty payload assembly.

Loading next visibility...
Identifier
41245, 2000-055EV
Orbit
SSO
Country
Flag of USUS
Related business
Manufacturer
Unknown
Mission
Spacecraft
Bus & Motor
Unknown
Mass
Unknown
Launch date (UTC)
2000-09-21 (25 years ago)
Launch vehicle
Unknown
Launch site
Air Force Western Test Range (AFWTR)
Object type
Payload
Rocket body
Debris
Shape & HBR
Unknown shape, 0.1 m
Radar Cross Section
Small (<0.1 m²)

Expand to show TLE details & history
Last TLE update: 10 hours ago

TLE from 10 hours ago
0 NOAA 16 DEB
1 41245U 00055EV  26034.02717772  .00001942  00000-0  93858-3 0  9996
2 41245  98.5327  60.8612 0015734 116.7923 243.4865 14.19609718519579
Epoch: 2026-02-03T00:39Z
TLE epoch observation values (Epoch: 2026-02-03T00:39:08.155Z)
Latitude
-0.00008°
Longitude
-82.13677°
Altitude
834.668 km
Speed
7.433 km/s
True Right ascension
04h 03m 26s
True Declination
0° 00' 00"
Sunlit
Object was in daylight at epoch
Visualization orbit readout
Latitude
Unknown
Longitude
Unknown
Altitude
Unknown
Speed
Unknown
Apparent Right ascension
Unknown
Apparent Declination
Unknown
Sunlit
N/A
Visualization observer readout
Local Sidereal Time
12:03:13
Azimuth
Unknown
Elevation
Unknown
Doppler factor
Unknown
Orbital elements
Apogee altitude
835.155 km
Perigee altitude
812.492 km
Semi-major axis
7,201.961 km
Eccentricity
0.00157
Inclination
98.5327°
RAAN
60.8612°
Arg. of periapsis
116.7923°
True anomaly
243.32531°
Mean anomaly
243.4865°
Eccentric anomaly
243.40589°
Mean motion
3.55113 °/min
Orbital period
101.38 mins
BSTAR
0.00093858
Loading maneuver chart data...
Computing Atmospheric mass density...
Loading historical data...
Loading historical data...
Loading historical data...
Loading historical data...
Loading historical data...
Loading historical data...
Loading historical data...

Documentation

Showing up to 5 results
|